DW5398 Weather Reports


Display with metric or nautical units.
time (UTC)temp
F
wind
direction
speed
MPH
gust
MPH
rain 1hr
in
rain 24hr
in
rain mn
in
humidity
%
barometer
mb
20221209033935 22 0 0.0 0.0 0.00 0.00 0.00 68 1007.5
20221209032436 22 0 0.0 0.0 0.00 0.00 0.00 68 1007.5
20221209030931 22 0 0.0 0.0 0.00 0.00 0.00 68 1007.6
20221209025435 22 0 0.0 0.0 0.00 0.00 0.00 68 1007.5
20221209023934 22 0 0.0 0.0 0.00 0.00 0.00 69 1007.7
20221209022437 22 0 0.0 0.0 0.00 0.00 0.00 68 1007.9
20221209020932 22 0 0.0 0.0 0.00 0.00 0.00 69 1007.9
20221209015434 23 0 0.0 0.0 0.00 0.00 0.00 69 1007.8
20221209013935 23 0 0.0 0.0 0.00 0.00 0.00 69 1007.9
20221209012431 23 0 0.0 0.0 0.00 0.00 0.00 69 1008.1
20221209005436 23 0 0.0 0.0 0.00 0.00 0.00 69 1008.2
20221209003931 23 0 0.0 0.0 0.00 0.00 0.00 69 1008.2
20221209002430 23 0 0.0 0.0 0.00 0.00 0.00 69 1008.3
20221209000930 24 0 0.0 0.0 0.00 0.00 0.00 70 1008.3
20221208235432 24 0 0.0 0.0 0.00 0.00 0.00 70 1008.2
20221208233929 24 0 0.0 0.0 0.00 0.00 0.00 70 1008.3
20221208232431 24 0 0.0 0.0 0.00 0.00 0.00 70 1008.4
20221208225429 24 0 0.0 0.0 0.00 0.00 0.00 70 1008.4
20221208223941 24 0 0.0 0.0 0.00 0.00 0.00 70 1008.5
20221208222430 25 0 0.0 0.0 0.00 0.00 0.00 70 1008.5
20221208220930 25 0 0.0 0.0 0.00 0.00 0.00 71 1008.6
20221208215431 25 0 0.0 0.0 0.00 0.00 0.00 71 1008.7
20221208213935 26 0 0.0 0.0 0.00 0.00 0.00 71 1008.7
20221208212424 26 0 0.0 0.0 0.00 0.00 0.00 71 1008.8
20221208205427 26 0 0.0 0.0 0.00 0.00 0.00 71 1008.9
20221208203934 26 0 0.0 0.0 0.00 0.00 0.00 72 1009.0
20221208200930 27 0 0.0 0.0 0.00 0.00 0.00 72 1008.8
20221208195430 27 0 0.0 0.0 0.00 0.00 0.00 72 1008.6
20221208193925 28 0 0.0 0.0 0.00 0.00 0.00 72 1008.8
20221208192421 28 0 0.0 0.0 0.00 0.00 0.00 72 1008.9
20221208190925 28 0 0.0 0.0 0.00 0.00 0.00 73 1008.9
20221208185426 29 0 0.0 0.0 0.00 0.00 0.00 73 1008.9
20221208183924 29 0 0.0 0.0 0.00 0.00 0.00 73 1009.0
20221208182422 29 0 0.0 0.0 0.00 0.00 0.00 73 1009.0
20221208180921 30 0 0.0 0.0 0.00 0.00 0.00 73 1008.9
20221208173921 31 0 0.0 0.0 0.00 0.00 0.00 74 1009.0
20221208172422 31 0 0.0 0.0 0.00 0.00 0.00 75 1009.0
20221208170920 32 0 0.0 0.0 0.00 0.00 0.00 75 1008.9
20221208165423 32 0 0.0 0.0 0.00 0.00 0.00 75 1008.9
20221208163928 33 0 0.0 0.0 0.00 0.00 0.00 75 1009.0
20221208162419 34 0 0.0 0.0 0.00 0.00 0.00 76 1008.9
20221208160922 34 0 0.0 0.0 0.00 0.00 0.00 76 1009.0
20221208155420 35 0 0.0 0.0 0.00 0.00 0.00 76 1009.1
20221208153920 36 0 0.0 1.0 0.00 0.00 0.00 75 1009.1
20221208152423 37 0 0.0 1.0 0.00 0.00 0.00 75 1009.1
20221208150922 37 0 0.0 2.0 0.00 0.00 0.00 75 1009.0
20221208143918 38 4 0.0 3.0 0.00 0.00 0.00 74 1009.2
20221208142420 38 0 2.0 4.0 0.00 0.00 0.00 73 1009.3
20221208140917 38 7 1.0 3.0 0.00 0.00 0.00 72 1009.3
20221208135417 38 314 0.0 3.0 0.00 0.00 0.00 71 1009.5
20221208133918 37 0 2.0 5.0 0.00 0.00 0.00 70 1009.5
20221208132422 37 1 3.0 5.0 0.00 0.00 0.00 69 1009.6
20221208130917 37 68 5.0 5.0 0.00 0.00 0.00 68 1009.7
20221208125416 37 0 0.0 6.0 0.00 0.00 0.00 66 1009.8
20221208122415 36 0 1.0 3.0 0.00 0.00 0.00 64 1010.0
20221208120916 35 0 1.0 3.0 0.00 0.00 0.00 63 1009.9
20221208115412 35 11 1.0 3.0 0.00 0.00 0.00 63 1010.1
20221208113907 35 340 0.0 3.0 0.00 0.00 0.00 62 1010.3
20221208110906 35 0 1.0 4.0 0.00 0.00 0.00 60 1010.7
20221208105404 35 0 0.0 5.0 0.00 0.00 0.00 58 1010.8
20221208102405 33 0 0.0 1.0 0.00 0.00 0.00 57 1011.1
20221208100912 32 262 0.0 0.0 0.00 0.00 0.00 57 1011.1
20221208095407 30 262 0.0 0.0 0.00 0.00 0.00 58 1011.0
20221208093906 27 262 0.0 1.0 0.00 0.00 0.00 60 1011.2
20221208092406 26 262 0.0 1.0 0.00 0.00 0.00 62 1011.2
20221208090909 26 313 0.0 0.0 0.00 0.00 0.00 62 1011.2
20221208085407 25 313 0.0 0.0 0.00 0.00 0.00 63 1011.3
20221208083910 24 313 0.0 0.0 0.00 0.00 0.00 64 1011.5
20221208082405 24 313 0.0 0.0 0.00 0.00 0.00 64 1011.7
20221208075404 24 313 0.0 0.0 0.00 0.00 0.00 64 1011.5
20221208073906 24 313 0.0 0.0 0.00 0.00 0.00 64 1011.6
20221208072406 24 313 0.0 0.0 0.00 0.00 0.00 64 1011.7
20221208070907 24 313 0.0 0.0 0.00 0.00 0.00 64 1011.6
20221208065406 24 313 0.0 0.0 0.00 0.00 0.00 65 1011.7
20221208063907 25 313 0.0 0.0 0.00 0.00 0.00 64 1011.7
20221208060902 24 313 0.0 0.0 0.00 0.00 0.00 65 1012.0
20221208055405 25 313 0.0 0.0 0.00 0.00 0.00 65 1012.0
20221208052406 25 313 0.0 0.0 0.00 0.00 0.00 65 1012.3
20221208050903 25 313 0.0 0.0 0.00 0.00 0.00 65 1012.3
20221208045404 25 313 0.0 0.0 0.00 0.00 0.00 65 1012.3
20221208043902 25 313 0.0 0.0 0.00 0.00 0.00 65 1012.3
20221208042404 25 313 0.0 0.0 0.00 0.00 0.00 65 1012.6
20221208040906 26 313 0.0 0.0 0.00 0.00 0.00 65 1012.6
20221208035403 26 313 0.0 0.0 0.00 0.00 0.00 65 1012.7